This is the latest recevied weather packets stored in our database for station/object KF0ZH. If no packets are shown the sender has not sent any weather packets the latest 10 day(s).
| Time | Temp. | Humidity | Pressure | Rain* | Wind** | Luminosity | Snow |
|---|---|---|---|---|---|---|---|
| 1777399921 | 11.67° C | 58% | 1014.2 hPa | 0 mm | 4.02 m/s, 319° | - | - |
| 1777399619 | 11.67° C | 56% | 1014.5 hPa | 0 mm | 0 m/s | - | - |
| 1777399321 | 11.67° C | 61% | 1014.5 hPa | 0 mm | 4.02 m/s, 282° | - | - |
| 1777399018 | 11.11° C | 60% | 1014.5 hPa | 0 mm | 1.79 m/s, 329° | - | - |
| 1777398718 | 11.67° C | 60% | 1014.6 hPa | 0 mm | 5.81 m/s, 281° | - | - |
| 1777398417 | 11.67° C | 58% | 1014.7 hPa | 0 mm | 0 m/s | - | - |
| 1777398117 | 11.11° C | 62% | 1014.5 hPa | 0 mm | 1.79 m/s, 317° | - | - |
| 1777397818 | 11.11° C | 63% | 1014.5 hPa | 0 mm | 1.79 m/s, 358° | - | - |
| 1777397517 | 11.11° C | 59% | 1014.5 hPa | 0 mm | 4.02 m/s, 306° | - | - |
| 1777397217 | 11.11° C | 63% | 1014.5 hPa | 0 mm | 0 m/s | - | - |
| 1777396918 | 11.11° C | 64% | 1014.6 hPa | 0 mm | 5.81 m/s, 275° | - | - |
| 1777396617 | 11.11° C | 61% | 1014.5 hPa | 0 mm | 1.79 m/s, 285° | - | - |
| 1777396320 | 11.11° C | 62% | 1014.4 hPa | 0 mm | 1.79 m/s, 313° | - | - |
| 1777396017 | 10.56° C | 63% | 1014.5 hPa | 0 mm | 4.02 m/s, 281° | - | - |
| 1777395717 | 10.56° C | 63% | 1014.5 hPa | 0 mm | 4.02 m/s, 307° | - | - |
| 1777395417 | 10.56° C | 64% | 1014.6 hPa | 0 mm | 0 m/s | - | - |
| 1777395118 | 10.56° C | 64% | 1014.7 hPa | 0 mm | 0 m/s | - | - |
| 1777394817 | 10.56° C | 66% | 1014.6 hPa | 0 mm | 0 m/s | - | - |
| 1777394217 | 10.56° C | 67% | 1014.5 hPa | 0 mm | 3.13 m/s, 307° | - | - |
| 1777393918 | 10.56° C | 67% | 1014.5 hPa | 0 mm | 4.47 m/s, 288° | - | - |
| 1777393618 | 10° C | 67% | 1014.5 hPa | 0 mm | 4.47 m/s, 307° | - | - |
| 1777393320 | 10° C | 68% | 1014.5 hPa | 0 mm | 3.13 m/s, 337° | - | - |
| 1777393017 | 10° C | 67% | 1014.4 hPa | 0 mm | 0 m/s | - | - |
| 1777392719 | 10° C | 69% | 1014.5 hPa | 0 mm | 2.68 m/s, 264° | - | - |
| 1777392417 | 10° C | 68% | 1014.6 hPa | 0 mm | 3.13 m/s, 29° | - | - |
* Rain latest hour (hover to see other rain measurements)
** Current wind speed in m/s (hover to see current wind gust speed)